CAPE
6 0 0 0 0 0 0 0 0 0 0 0 0 0 0 0 0 0 0 0 0 0 0 0 0 0 0 0 0 0 0 0 0 0 0 0 0 0 0 0 0 0 0 0
1 3 2 0 0 0 0 0 0 11 0 0 0 0 0 0 0 0 0 0 0 0 0 0 0 0 0 0 0 0 0 0 0 0 0 0 0 0 0 0 0 0 0 0
1 11 1 0 0 0 0 0 1 1 0 0 1 0 0 0 0 0 0 0 0 0 0 0 0 0 0 0 0 0 0 0 0 0 0 0 0 0 0 0 0 0 0 0
0 0 0 0 0 0 0 0 11 4 0 0 0 0 0 0 0 0 0 0 0 0 0 0 0 0 0 0 0 0 0 0 0 0 0 0 0 0 0 0 0 0 0 0
0 1 0 0 2 0 0 0 0 0 0 0 0 0 0 0 0 0 0 0 0 0 0 0 0 0 0 0 0 0 0 0 0 0 0 0 0 0 0 0 0 0 0 0
4 6 1 0 0 0 13 0 0 0 0 0 0 0 0 0 0 0 0 0 0 0 0 0 0 0 0 0 0 0 0 0 0 0 0 0 0 0 0 0 0 0 0 0
3 0 0 0 0 0 0 0 0 0 0 0 0 0 0 0 0 0 0 0 0 0 0 0 0 0 0 0 0 0 0 0 0 0 0 0 0 0 0 0 0 0 0 0
0 2 0 0 1 0 18 23 0 0 0 0 0 0 0 0 0 0 0 0 0 0 0 0 0 0 0 0 0 0 0 0 0 0 0 0 0 0 0 0 0 0 0 0
0 0 0 3 97 11 5 1 0 0 0 0 0 0 0 0 0 0 0 0 0 0 0 0 0 0 0 0 0 0 0 0 0 0 0 0 0 0 0 0 0 0 0 0
29 0 10 26 42 2 17 9 0 0 0 0 0 0 0 0 0 0 0 0 0 0 0 0 0 0 0 0 0 0 0 0 0 0 0 1 0 0 0 0 0 0 0 0
1 9 5 12 25 4 3 0 0 0 0 0 0 0 0 0 0 0 0 0 0 0 0 0 0 0 0 0 0 0 0 0 0 0 0 0 0 0 0 0 0 0 0 0
5 52 21 18 27 40 6 0 0 1 0 0 0 0 0 0 0 0 0 0 0 0 0 0 0 0 0 0 0 0 0 0 0 0 0 0 0 0 0 0 0 0 0 0
20 36 63 23 4 0 0 0 0 0 0 0 0 0 0 0 0 0 0 0 0 0 0 0 0 0 0 0 0 0 0 0 0 0 0 0 0 0 0 0 0 0 0 0
10 48 7 13 23 0 0 0 0 0 0 0 0 0 0 0 0 0 0 0 0 0 0 0 0 0 0 0 0 0 0 0 0 0 0 0 0 0 0 0 0 0 0 0
5 2 5 24 8 6 0 0 0 0 0 0 0 0 0 0 0 0 0 0 0 0 0 0 0 0 0 0 0 0 0 0 0 0 0 0 0 0 0 0 0 0 0 0
0 0 26 8 0 0 0 0 0 0 0 0 0 0 0 0 0 0 0 0 0 0 0 0 0 0 0 0 0 0 0 0 0 0 0 0 0 0 0 0 0 0 0 0
56 23 2 0 0 0 0 0 0 0 0 0 0 0 0 0 0 0 0 0 0 0 0 0 0 0 0 0 0 0 0 0 0 0 0 0 0 0 0 0 0 0 0 0
2 0 0 0 0 0 0 0 0 0 0 0 0 0 0 0 0 0 0 0 0 0 0 0 0 0 0 0 0 0 0 0 0 0 0 0 0 0 0 0 0 0 0 0
0 0 0 0 0 0 0 0 0 0 0 0 0 0 0 0 0 0 0 0 0 0 0 0 0 0 0 0 0 0 0 0 0 0 0 0 0 0 0 0 0 0 0 0
0 0 0 0 0 0 0 0 0 0 0 0 0 0 0 0 0 0 0 0 0 0 0 0 0 0 0 0 0 0 0 0 0 0 0 0 0 0 0 0 0 0 0 0
0 0 0 0 0 0 1 1 0 3 1 0 0 0 0 0 0 0 0 0 0 0 0 0 0 0 0 0 0 0 0 0 0 0 0 0 0 0 0 0 0 0 0 0
0 0 0 0 0 0 0 1 1 0 1 0 0 0 0 0 0 0 0 0 0 0 0 0 0 0 0 0 0 0 0 0 0 0 0 0 0 0 0 0 0 0 0 0
0 1 1 1 1 0 1 0 0 0 0 0 0 0 0 0 0 0 1 0 0 0 0 0 0 0 0 0 0 0 0 0 0 0 0 0 0 0 0 0 0 0 0 0
1 2 0 0 0 0 1 0 0 0 0 0 0 0 0 0 0 0 0 0 0 0 0 0 0 0 0 0 0 0 0 0 0 0 0 0 0 0 0 0 0 0 0 0
1 0 1 1 1 1 0 0 0 0 0 0 0 0 0 0 0 0 0 0 0 0 0 0 0 0 0 0 0 0 0 0 0 0 0 0 0 0 0 0 0 0 0 0
1 1 1 0 0 0 0 0 1 0 0 0 0 1 2 2 0 0 0 0 0 2 0 0 0 0 0 0 0 0 0 0 0 0 0 0 0 0 0 0 0 0 0 0
0 0 0 0 0 0 0 0 0 0 0 0 0 0 0 0 0 0 0 0 0 0 0 0 0 0 0 0 0 0 0 0 0 0 0 0 0 0 0 0 0 0 0 0
CIN
-48 -35 -0 -0 -0 -1 -0 -0 -2 -0 -0 -0 -0 -0 -0 -0 -0 -0 -0 -0 -0 -0 -0 -0 -0 -0 -0 -0 -0 -0 -0 -0 -0 -0 -0 -0 -0 -0 -0 -0 -0 -0 -0 -0
-80 -69 -22 -0 -0 -0 -0 -0 -0 -30 -0 -0 -0 -0 -0 -0 -0 -0 -0 -0 -0 -0 -0 -0 -0 -0 -0 -0 -0 -0 -0 -0 -0 -0 -0 -0 -0 -0 -0 -0 -0 -0 -0 -0
-3 -27 -3 -0 -0 -0 -0 -0 -17 -16 -0 -0 -2 -0 -0 -0 -0 -0 -0 -0 -0 -0 -0 -0 -0 -0 -0 -0 -0 -0 -0 -0 -0 -0 -0 -0 -0 -0 -0 -0 -0 -0 -0 -0
-0 -0 -0 -0 -0 -0 -0 -0 -51 -40 -0 -0 -0 -0 -0 -0 -0 -0 -0 -0 -0 -0 -0 -0 -0 -0 -0 -0 -0 -0 -0 -0 -0 -0 -0 -0 -0 -0 -0 -0 -0 -0 -0 -0
-1 -1 -0 -0 -3 -0 -0 -0 -0 -0 -0 -0 -0 -0 -0 -0 -0 -0 -0 -0 -0 -0 -0 -0 -0 -0 -0 -0 -0 -0 -0 -0 -0 -0 -0 -0 -0 -0 -0 -0 -0 -0 -0 -0
-3 -1 -1 -0 -0 -0 -4 -0 -0 -0 -0 -0 -0 -0 -0 -0 -0 -0 -0 -0 -0 -0 -0 -0 -0 -0 -0 -0 -0 -0 -0 -0 -0 -0 -0 -0 -0 -0 -0 -0 -0 -0 -0 -0
-2 -1 -0 -0 -2 -0 -0 -0 -0 -0 -0 -0 -0 -0 -0 -0 -0 -0 -0 -0 -0 -0 -0 -0 -0 -0 -0 -0 -0 -0 -0 -0 -0 -0 -0 -0 -0 -0 -0 -0 -0 -0 -0 -0
-0 -2 -0 -0 -6 -0 -5 -22 -0 -0 -0 -0 -0 -0 -0 -0 -0 -0 -0 -0 -0 -0 -0 -0 -0 -0 -0 -0 -0 -0 -0 -0 -0 -0 -0 -0 -0 -0 -0 -0 -0 -0 -0 -0
-0 -0 -0 -25 -5 -30 -36 -4 -0 -0 -0 -0 -0 -0 -0 -0 -0 -0 -0 -0 -0 -0 -0 -0 -0 -0 -0 -0 -0 -0 -0 -0 -0 -0 -0 -0 -0 -0 -0 -0 -0 -0 -0 -0
-9 -3 -6 -29 -17 -35 -19 -24 -0 -0 -0 -0 -0 -0 -0 -0 -0 -0 -0 -0 -0 -0 -0 -0 -0 -0 -0 -0 -0 -0 -0 -0 -0 -0 -0 -0 -0 -0 -0 -0 -0 -0 -0 -0
-4 -8 -13 -14 -7 -12 -16 -0 -0 -0 -0 -0 -0 -0 -0 -0 -0 -0 -0 -0 -0 -0 -0 -0 -0 -0 -0 -0 -0 -0 -0 -0 -0 -0 -0 -0 -0 -0 -0 -0 -0 -0 -0 -0
-6 -15 -10 -6 -22 -20 -30 -0 -0 -1 -0 -0 -0 -0 -0 -0 -0 -0 -0 -0 -0 -0 -0 -0 -0 -0 -0 -0 -0 -0 -0 -0 -0 -0 -0 -0 -0 -0 -0 -0 -0 -0 -0 -0
-6 -4 -4 -19 -22 -0 -0 -0 -0 -0 -0 -0 -0 -0 -0 -0 -0 -0 -0 -0 -0 -0 -0 -0 -0 -0 -0 -0 -0 -0 -0 -0 -0 -0 -0 -0 -0 -0 -0 -0 -0 -0 -0 -0
-10 -3 -8 -16 -25 -0 -0 -0 -0 -0 -0 -0 -0 -0 -0 -0 -0 -0 -0 -0 -0 -0 -0 -0 -0 -0 -0 -0 -0 -0 -0 -0 -0 -0 -0 -0 -0 -0 -0 -0 -0 -0 -0 -0
-17 -7 -2 -2 -2 -1 -0 -0 -0 -0 -0 -0 -0 -0 -0 -0 -0 -0 -0 -0 -0 -0 -0 -0 -0 -0 -0 -0 -0 -0 -0 -0 -0 -0 -0 -0 -0 -0 -0 -0 -0 -0 -0 -0
-0 -0 -2 -1 -0 -0 -0 -0 -0 -0 -0 -0 -0 -0 -0 -0 -0 -0 -0 -0 -0 -0 -0 -0 -0 -0 -0 -0 -0 -0 -0 -0 -0 -0 -0 -0 -0 -0 -0 -0 -0 -0 -0 -0
-1 -11 -29 -0 -0 -0 -0 -0 -0 -0 -0 -0 -0 -0 -0 -0 -0 -0 -0 -0 -0 -0 -0 -0 -0 -0 -0 -0 -0 -0 -0 -0 -0 -0 -0 -0 -0 -0 -0 -0 -0 -0 -0 -0
-10 -0 -0 -0 -0 -0 -0 -0 -0 -0 -0 -0 -0 -0 -0 -0 -0 -0 -0 -0 -0 -0 -0 -0 -0 -0 -0 -0 -0 -0 -0 -0 -0 -0 -0 -0 -0 -0 -0 -0 -0 -0 -0 -0
-0 -0 -0 -0 -0 -0 -0 -0 -0 -0 -0 -0 -0 -0 -0 -0 -0 -0 -0 -0 -0 -0 -0 -0 -0 -0 -0 -0 -0 -0 -0 -0 -0 -0 -0 -0 -0 -0 -0 -0 -0 -0 -0 -0
-0 -0 -0 -0 -0 -0 -0 -0 -0 -0 -0 -0 -0 -0 -0 -0 -0 -0 -0 -0 -0 -0 -0 -0 -0 -0 -0 -0 -0 -0 -0 -0 -0 -0 -0 -0 -0 -0 -0 -0 -0 -0 -0 -0
-0 -0 -0 -0 -0 -0 -0 -0 -0 -0 -0 -0 -0 -0 -0 -0 -0 -0 -0 -0 -0 -0 -0 -0 -0 -0 -0 -0 -0 -0 -0 -0 -0 -0 -0 -0 -0 -0 -0 -0 -0 -0 -0 -0
-0 -0 -0 -0 -0 -0 -0 -0 -0 -0 -0 -0 -1 -0 -0 -0 -0 -0 -0 -0 -0 -0 -0 -0 -0 -0 -0 -0 -0 -0 -0 -0 -0 -0 -0 -0 -0 -0 -0 -0 -0 -0 -0 -0
-0 -0 -0 -0 -0 -0 -0 -0 -0 -0 -0 -0 -0 -2 -1 -0 -0 -0 -0 -0 -0 -0 -0 -0 -0 -0 -0 -0 -0 -0 -0 -0 -0 -0 -0 -0 -0 -0 -0 -0 -0 -0 -0 -0
-0 -0 -1 -0 -0 -0 -0 -0 -0 -0 -0 -0 -0 -1 -0 -0 -0 -0 -0 -0 -0 -0 -0 -0 -0 -0 -0 -0 -0 -0 -0 -0 -0 -0 -0 -0 -0 -0 -0 -0 -0 -0 -0 -0
-0 -0 -0 -0 -0 -0 -0 -0 -0 -0 -0 -0 -1 -2 -4 -2 -0 -0 -0 -0 -0 -0 -0 -0 -0 -0 -0 -0 -0 -0 -0 -0 -0 -0 -0 -0 -0 -0 -0 -0 -0 -0 -0 -0
-0 -0 -0 -0 -0 -0 -0 -0 -0 -0 -0 -0 -0 -2 -1 -1 -0 -0 -0 -0 -0 -0 -0 -0 -0 -0 -0 -0 -0 -0 -0 -0 -0 -0 -0 -0 -0 -0 -0 -0 -0 -0 -0 -0
-0 -0 -0 -0 -0 -0 -0 -0 -0 -0 -0 -0 -0 -0 -0 -0 -0 -0 -0 -0 -0 -0 -0 -0 -0 -1 -0 -0 -0 -0 -0 -0 -0 -0 -0 -0 -0 -0 -0 -0 -0 -0 -0 -0
Wind_Speed
26 20 25 29 29 29 31 31 31 33 31 32 34 37 36 29 27 24 17 15 16 17 17 14 13 13 13 15 14 16 18 19 21 23 23 18 20 19 10 27 7 6 11 12
33 29 27 31 30 30 29 27 29 32 38 34 32 33 25 25 24 23 21 14 15 15 13 12 11 11 12 12 12 15 16 18 19 19 15 17 21 26 28 28 23 21 21 18
38 31 32 37 32 31 33 31 30 35 34 35 31 29 26 24 23 22 20 13 13 13 11 10 10 9 10 10 10 12 14 16 17 18 19 19 21 24 26 27 28 25 25 23
29 25 37 29 22 20 22 25 27 28 27 26 28 22 22 22 22 20 17 13 11 10 8 9 8 7 8 8 9 11 12 13 15 16 16 18 20 22 24 25 27 29 29 31
27 29 28 28 18 18 21 26 22 25 25 23 20 20 22 20 19 18 14 12 9 8 8 7 7 7 7 7 8 10 11 11 12 13 15 16 18 20 22 24 25 27 29 30
24 28 31 27 22 18 17 30 22 21 23 21 18 25 21 17 17 18 14 11 8 8 7 8 8 9 6 7 8 10 11 11 12 13 14 15 17 19 21 22 24 25 26 29
25 26 25 27 19 13 23 25 17 17 18 18 19 20 17 15 16 15 12 9 9 9 7 7 8 7 6 7 7 9 10 10 11 12 13 15 16 18 19 20 22 23 25 27
24 26 29 21 14 18 19 18 16 18 19 17 17 18 18 16 13 13 10 9 8 7 7 7 7 6 5 6 7 8 8 9 10 12 13 14 15 17 19 19 21 22 24 25
22 23 19 23 23 15 17 18 19 19 18 15 17 18 15 14 13 11 8 8 8 6 6 7 7 6 5 4 5 6 7 8 10 11 13 15 16 17 18 20 20 22 23 24
28 28 26 23 22 19 20 22 19 19 21 15 19 16 14 13 12 10 7 7 7 6 5 6 6 6 6 3 4 5 6 7 8 10 13 15 15 17 18 20 21 22 22 24
32 30 26 25 24 24 25 25 24 20 21 17 16 15 13 12 10 8 7 7 6 6 6 6 5 6 5 4 3 5 6 6 7 9 11 13 15 16 17 19 21 21 23 24
31 24 26 29 29 25 24 24 22 20 17 17 14 14 12 12 9 7 7 7 7 7 7 6 5 6 5 5 5 6 8 7 8 9 8 10 12 15 16 17 19 20 22 23
33 28 29 23 23 22 23 24 22 18 15 15 14 13 11 10 7 6 6 6 6 6 6 6 6 6 6 5 6 8 9 8 9 10 10 11 11 13 16 17 18 19 21 23
28 26 29 28 30 25 23 20 17 16 17 16 14 11 10 8 7 6 6 6 6 6 6 6 7 8 7 7 8 10 12 10 10 11 11 12 13 15 14 15 17 18 21 21
24 25 30 27 23 19 18 16 16 17 16 14 14 11 9 8 7 6 7 6 6 7 7 7 8 8 7 8 11 12 13 13 12 12 12 13 13 14 15 16 17 18 18 22
35 35 24 23 22 18 15 16 15 14 12 14 13 12 11 9 8 8 8 7 7 9 8 7 7 5 7 8 10 13 14 12 12 13 12 13 14 14 15 16 17 19 21 25
26 21 18 18 17 17 14 13 13 14 14 11 12 12 11 10 9 8 8 8 7 6 4 3 4 5 6 7 8 11 13 12 11 11 12 13 14 15 16 17 20 21 21 24
16 14 14 14 15 15 14 15 17 18 17 14 13 13 12 9 9 8 8 8 9 9 6 5 6 4 5 4 7 10 11 12 11 12 13 14 15 16 17 19 20 21 19 22
11 13 13 14 18 15 12 15 17 16 15 13 13 13 12 10 8 8 7 7 7 5 6 4 4 5 6 5 7 11 7 8 11 12 13 13 15 16 17 18 19 20 22 22
12 13 14 17 17 15 15 15 14 14 14 13 13 12 12 10 8 7 6 6 6 5 4 3 3 0 2 2 7 10 9 8 10 11 13 14 15 17 18 20 20 21 21 22
12 14 15 15 15 16 15 14 12 12 13 13 12 12 11 11 8 7 6 7 6 5 5 6 5 3 1 2 8 8 8 9 10 12 13 16 17 17 18 18 19 20 21 22
12 12 12 13 13 13 12 12 12 12 12 12 12 12 11 10 9 8 7 7 7 7 6 6 5 4 2 1 3 5 7 9 11 12 13 14 15 15 17 18 19 20 21 22
10 10 11 11 11 12 12 12 12 12 12 12 11 11 11 10 8 8 8 8 7 5 6 5 4 5 4 2 4 5 7 9 10 12 13 15 16 17 17 18 19 20 21 22
11 11 11 11 11 11 12 12 11 12 11 12 11 10 10 10 9 9 9 8 7 6 5 5 4 4 4 4 5 6 8 9 11 12 14 15 16 17 18 19 19 19 20 21
11 11 11 11 11 12 10 10 11 11 11 11 10 9 10 10 10 10 9 8 7 6 6 6 5 4 4 5 7 7 9 10 11 12 14 15 15 16 17 18 18 20 20 21
11 11 11 10 11 10 10 8 10 10 10 11 10 10 10 10 10 10 9 8 7 7 7 6 5 5 6 7 7 8 9 11 12 13 13 14 15 16 17 18 18 19 19 21
12 11 11 11 11 10 10 9 10 10 9 9 10 9 10 10 9 9 8 7 6 7 7 6 5 5 6 7 8 9 11 12 12 13 14 15 16 16 17 18 18 19 19 20
Wind_Direction
281 287 289 286 287 290 282 286 283 293 295 301 308 311 312 317 322 325 324 319 325 330 332 336 341 348 351 357 8 5 7 11 15 9 357 331 15 7 87 56 1 32 5 3
279 282 287 282 281 284 287 290 290 295 295 304 308 309 315 321 324 325 326 323 327 332 335 337 345 350 351 358 14 7 7 13 19 357 316 334 350 15 15 10 357 355 357 356
277 282 285 283 280 281 283 285 291 292 298 304 309 310 316 322 325 324 329 327 329 332 337 343 349 356 352 360 14 9 9 18 14 358 357 348 358 8 13 13 12 3 2 359
280 284 279 289 293 286 288 290 295 296 302 307 312 321 323 326 326 326 327 329 333 337 345 349 360 6 8 10 9 360 10 13 9 355 349 2 7 7 12 15 18 17 11 14
281 280 290 294 305 294 292 294 303 303 306 312 322 324 326 332 334 335 337 339 345 349 352 1 9 6 8 9 3 353 356 4 2 349 344 349 357 5 7 14 17 19 18 13
282 281 283 292 300 310 309 293 306 303 307 314 323 317 327 336 339 341 346 353 358 356 358 358 1 353 6 357 348 340 340 348 341 342 339 340 356 9 11 12 17 18 17 18
274 282 290 292 311 314 293 306 320 319 319 320 322 325 335 342 343 344 350 356 353 343 351 356 349 355 353 354 348 338 335 337 338 331 332 335 343 351 5 12 14 17 17 15
277 279 285 301 299 285 305 316 318 314 318 323 326 326 330 332 338 339 347 352 345 337 335 345 341 347 346 347 349 342 337 332 331 324 325 332 341 348 351 358 6 10 12 9
281 282 292 306 309 292 308 311 314 317 323 323 323 324 328 329 334 331 339 337 335 339 333 330 331 331 335 348 348 346 333 332 330 323 318 321 330 336 345 350 356 359 2 4
282 285 292 301 295 302 302 304 313 317 320 320 320 322 323 323 328 327 334 327 329 329 326 321 318 320 323 342 345 342 333 335 333 323 317 320 330 335 338 339 346 350 354 354
280 286 292 289 296 300 298 306 312 312 314 318 322 323 320 320 323 324 325 321 320 315 313 310 309 308 308 310 315 318 324 330 328 323 321 322 328 335 343 345 345 347 349 352
282 291 289 288 292 295 301 306 311 311 315 319 322 325 325 323 321 321 319 316 313 307 306 302 296 296 293 289 293 301 306 310 314 314 317 324 326 331 341 346 350 353 351 350
282 283 281 295 297 301 302 305 310 316 317 319 321 323 326 327 324 320 319 314 309 303 303 297 288 288 283 277 284 292 299 303 306 310 313 315 322 323 327 333 340 345 349 349
281 284 282 285 287 298 302 308 317 320 321 321 325 328 332 332 334 325 319 319 316 310 307 300 291 284 278 276 281 287 295 298 303 308 312 317 322 324 330 333 334 339 343 348
281 283 278 286 296 299 309 315 315 318 321 327 328 331 338 337 335 332 330 324 317 307 302 298 293 287 276 277 283 286 290 293 301 307 311 316 322 326 331 334 338 341 345 344
268 265 283 285 294 302 312 316 320 323 328 326 329 336 338 341 340 340 335 326 310 301 300 295 294 291 288 285 286 285 287 290 299 305 308 314 319 325 329 333 337 339 338 336
273 281 283 288 298 302 313 325 327 325 323 332 334 339 342 343 346 348 347 345 337 337 348 317 300 297 297 289 287 287 287 293 300 307 308 313 318 322 326 329 328 332 337 339
288 291 294 298 302 308 317 323 319 316 321 330 336 341 343 347 347 353 359 359 343 338 336 322 303 297 292 283 290 294 294 293 301 305 310 312 316 321 323 325 327 330 339 340
299 299 305 307 308 315 319 318 317 323 330 335 340 342 347 350 357 2 7 356 344 335 332 334 304 285 279 277 297 294 307 304 301 308 312 315 317 321 323 324 329 332 334 338
301 303 308 310 315 318 314 319 325 330 337 343 348 351 351 354 360 7 12 0 352 0 35 52 102 189 273 219 301 296 305 313 306 310 313 314 317 317 319 323 328 331 335 337
307 308 311 317 314 314 318 323 333 338 343 348 353 355 359 4 11 19 21 15 20 41 67 91 103 116 117 276 297 306 311 309 309 311 312 312 316 320 326 330 331 333 334 336
315 317 319 317 321 326 333 339 343 347 350 354 357 2 8 7 13 17 19 21 28 60 64 86 100 98 61 88 345 331 321 317 315 316 319 321 324 326 327 329 331 333 335 337
329 323 324 329 336 340 344 346 349 353 355 359 4 8 9 16 24 29 22 36 36 48 56 78 78 96 97 71 355 342 330 326 325 325 326 326 327 329 330 330 333 335 336 337
328 327 331 342 349 348 346 349 354 357 3 6 9 17 21 25 29 26 26 34 44 64 41 45 68 73 68 13 356 345 338 333 331 332 332 331 330 331 332 334 333 336 338 338
338 340 341 344 345 347 357 1 2 6 8 8 14 19 20 21 20 27 33 35 62 59 40 49 56 62 23 4 352 347 342 340 336 335 334 332 334 335 336 337 337 337 340 340
346 345 347 352 354 4 5 10 3 7 9 8 11 12 13 16 23 29 32 42 62 38 39 44 38 34 9 6 2 355 349 345 342 340 341 340 339 339 339 340 340 339 339 341
349 354 359 358 2 6 8 6 7 7 8 10 9 12 11 14 17 20 28 41 47 31 33 32 45 32 18 10 1 355 351 348 347 344 343 341 340 339 339 340 340 342 343 344